Dewpoint
47 46 44 45 45 45 45 45 44 46 47 47 49 50 51 51 52 52 54 56 58 60 62 63 64 63 63 62 62 62 60 58 52 49 52 53 52 51 53 51 49 46 47
45 43 44 44 44 43 43 44 46 47 47 48 49 49 50 50 51 50 53 55 57 59 60 62 63 62 60 60 60 57 56 54 52 47 49 49 50 51 51 46 45 45 45
43 43 43 43 41 42 43 44 45 46 46 47 48 49 50 51 51 51 51 53 55 58 60 61 60 59 58 58 57 54 52 52 51 49 50 49 48 46 45 45 46 48 48
42 42 42 41 42 42 43 44 45 47 48 49 50 50 50 51 51 52 52 54 56 57 57 57 57 58 56 56 54 51 50 47 47 44 44 44 44 46 47 47 46 46 44
41 42 41 42 42 43 43 44 46 47 48 49 50 52 52 51 52 53 55 55 55 52 52 52 52 53 53 53 51 47 43 43 42 42 45 48 47 47 47 47 45 44 43
41 41 41 41 42 43 44 45 46 46 47 48 50 53 52 53 51 51 54 53 51 49 47 47 48 49 49 50 50 50 48 47 47 47 47 47 47 47 47 46 44 42 40
41 40 40 41 42 43 44 44 44 44 45 46 47 48 48 48 48 49 50 49 47 46 45 44 44 45 45 44 46 46 47 48 49 48 46 47 46 45 43 44 44 42 42
40 39 39 41 42 43 42 42 43 43 43 43 44 45 45 46 45 45 45 45 44 44 44 43 43 43 44 43 43 43 45 47 48 50 47 44 43 43 44 43 42 43 43
38 39 40 42 42 41 41 42 42 42 41 42 42 42 42 43 43 44 44 44 43 43 43 44 44 43 43 43 43 43 43 43 42 43 44 42 42 41 42 44 42 41 39
38 39 40 42 41 41 42 42 42 42 41 41 40 41 42 41 42 42 43 42 41 42 42 43 44 43 42 42 44 43 42 40 39 39 40 40 41 42 44 43 44 42 42
40 40 40 40 41 41 41 42 41 41 40 40 40 40 41 41 41 41 41 42 42 42 42 42 42 41 40 40 43 46 44 38 40 43 44 44 42 42 45 45 46 43 43
38 38 38 38 39 40 39 40 40 40 39 39 39 40 40 41 41 40 40 40 41 41 40 41 40 38 38 39 40 39 39 39 38 43 43 46 44 44 46 47 46 47 46
38 37 37 37 38 38 38 38 38 39 38 36 37 38 38 38 39 40 39 39 40 40 41 40 38 37 38 40 42 42 42 43 41 41 42 44 44 45 45 43 42 44 45
37 37 37 37 36 37 38 38 37 38 38 38 38 38 39 39 40 41 41 42 40 39 37 36 37 37 39 42 41 42 43 43 43 42 43 43 44 44 43 42 40 40 39
38 37 37 36 37 37 37 37 37 37 38 38 38 38 38 37 37 36 33 30 31 34 33 34 34 36 38 39 41 41 42 43 42 42 41 41 41 42 41 43 40 39 38
38 37 37 37 36 36 36 36 35 36 35 35 35 36 38 34 33 33 35 35 34 34 30 30 31 34 36 38 39 40 41 42 42 40 41 41 41 41 41 42 40 38 38
37 37 37 37 37 35 33 31 32 32 35 34 33 33 33 33 33 33 33 32 33 32 29 30 30 30 33 38 39 39 39 40 41 42 41 41 40 41 40 40 38 37 36
38 37 37 35 34 36 36 34 33 32 30 28 31 30 32 34 34 34 33 30 27 29 28 28 28 31 32 35 39 39 39 40 40 41 41 42 42 39 38 38 37 36 36
37 35 34 33 32 31 31 30 30 30 31 30 30 30 31 32 32 32 32 28 28 28 27 27 29 32 33 34 36 38 38 39 40 42 42 41 39 38 37 37 37 35 35
36 36 36 34 33 32 31 29 28 28 27 27 28 29 29 28 28 27 27 26 27 26 26 27 30 32 33 33 34 35 38 38 40 41 40 38 38 37 36 36 36 36 37
39 37 31 30 29 28 27 28 28 28 27 27 28 29 30 28 28 27 26 25 25 26 27 30 31 33 33 33 34 34 35 36 39 41 40 38 38 37 37 36 36 36 37
37 32 29 28 28 27 27 27 28 28 28 28 28 28 29 28 27 27 27 28 27 26 30 32 32 33 34 34 34 33 33 34 36 40 40 40 37 36 36 35 35 36 37
37 29 28 28 28 28 28 28 28 28 28 29 28 28 27 28 28 28 27 27 26 27 28 32 32 32 33 33 34 34 33 33 35 39 39 38 36 35 35 35 36 37 37
36 33 28 28 27 26 27 27 27 28 27 28 29 28 29 29 28 27 26 25 24 25 29 32 33 32 32 32 33 33 33 33 37 38 37 36 35 35 36 36 38 37 37
34 28 27 28 29 28 27 27 27 26 28 28 28 28 29 29 28 28 28 24 23 23 26 30 30 30 31 31 32 33 32 32 35 34 36 36 36 37 38 37 38 37 37
31 28 29 28 28 27 26 27 28 29 29 29 30 30 29 29 28 26 26 24 22 23 26 28 29 29 29 31 31 31 32 32 34 33 36 36 37 37 38 37 37 37 36
Lifted_Index
6 7 8 9 9 10 9 10 10 10 9 9 9 9 8 8 7 6 5 4 3 1 -1 -2 -3 -3 -3 -3 -3 -2 -2 -2 -2 -1 -1 -1 0 1 3 5 9 11 12
7 7 8 9 10 10 10 10 11 10 9 9 8 8 8 7 7 6 5 4 3 1 -0 -2 -2 -2 -2 -2 -2 -2 -1 -1 -1 -1 -1 -0 1 3 5 7 10 12 12
8 9 10 11 11 11 11 10 10 10 9 8 7 7 7 6 6 6 5 4 3 1 -0 -1 -2 -2 -2 -2 -2 -1 -1 -0 -0 -0 -0 1 3 5 8 10 11 12 12
9 10 11 13 13 12 11 10 9 9 7 7 6 6 6 5 5 5 4 4 3 1 -0 -1 -2 -2 -2 -2 -1 -1 -0 0 0 0 1 2 4 6 9 10 11 12 11
11 12 13 14 14 13 11 10 8 7 6 5 5 5 5 5 5 4 4 3 2 1 -0 -1 -2 -2 -2 -1 -1 -0 0 1 1 1 2 3 4 7 9 11 12 12 11
13 13 14 14 13 12 11 9 7 6 5 4 4 4 4 4 4 4 3 3 1 1 -0 -1 -1 -1 -1 -1 -0 0 1 2 3 3 4 5 7 9 11 12 12 12 11
13 14 13 13 12 11 10 8 6 5 4 3 3 3 3 3 3 2 2 2 1 0 0 -0 -0 -0 0 0 1 1 3 5 6 7 7 8 10 11 12 12 12 12 12
13 13 13 12 11 10 9 7 6 5 4 3 3 3 2 2 1 1 1 1 1 1 1 1 1 1 2 2 2 3 5 8 9 10 11 11 12 12 12 12 12 12 12
13 13 12 12 11 10 9 8 7 6 5 4 4 3 3 2 2 1 1 1 1 2 2 3 3 3 4 5 5 5 8 10 11 11 11 12 12 12 13 13 13 12 12
13 13 13 12 12 11 11 10 9 7 6 6 6 5 5 4 4 3 2 1 2 2 3 5 6 7 8 9 9 9 10 11 11 10 11 11 12 13 13 13 13 12 12
14 14 13 13 13 12 12 11 10 9 8 7 7 7 8 8 7 6 5 5 5 5 6 8 10 11 11 11 11 11 11 11 10 11 11 12 12 12 12 12 12 12 12
15 14 14 13 13 12 12 11 11 10 9 8 8 8 10 10 11 10 10 10 10 9 10 11 12 12 13 12 12 11 11 11 11 11 12 12 12 12 12 12 12 12 12
15 15 14 14 13 12 12 11 11 10 10 9 9 10 11 13 14 14 13 13 13 13 13 13 13 13 13 12 12 11 11 11 12 12 12 12 12 12 12 12 12 11 10
15 15 14 13 13 13 13 12 12 12 12 12 12 13 14 15 15 15 15 15 14 14 14 13 13 13 13 13 12 12 12 12 13 13 13 13 13 13 13 12 11 10 9
15 15 14 14 13 13 14 14 14 14 14 15 15 15 15 16 16 16 16 16 15 15 15 14 14 13 13 13 13 13 13 13 13 13 13 13 13 13 13 12 10 9 8
15 15 15 15 15 15 16 16 17 17 16 17 17 17 16 16 16 16 16 16 16 16 16 16 15 14 14 14 14 14 14 14 14 14 14 13 13 13 12 11 9 8 8
16 16 16 16 17 17 18 18 18 17 17 17 17 17 16 16 16 16 16 16 17 17 17 17 16 16 15 15 14 14 14 14 14 14 14 13 13 12 11 10 9 9 8
17 17 18 18 18 18 18 18 18 17 17 17 17 16 16 16 16 16 17 17 17 18 18 18 17 16 16 15 15 15 15 14 14 14 14 13 12 11 10 9 9 9 9
17 17 17 18 18 18 18 18 17 17 17 17 17 17 16 17 17 17 17 18 18 19 19 19 18 18 17 16 16 15 15 14 14 13 13 12 11 10 9 9 9 9 9
16 16 16 17 17 17 17 17 16 16 16 16 17 17 17 17 18 18 18 19 19 19 20 19 19 18 18 17 16 15 14 14 13 13 12 12 11 10 9 9 9 9 9
15 16 16 16 16 16 16 16 16 16 16 16 17 17 17 18 18 19 19 20 20 20 20 20 19 18 17 16 15 14 14 13 13 13 12 11 10 10 9 9 9 9 9
16 16 17 16 16 16 15 15 15 16 16 16 17 17 18 18 19 19 20 20 21 21 20 19 18 18 17 16 15 14 14 13 13 12 12 11 10 10 10 10 10 10 10
16 17 17 16 16 15 15 15 15 16 16 16 17 17 18 18 19 20 21 21 21 21 20 19 18 17 16 16 15 15 14 13 13 12 11 10 10 10 11 11 12 12 12
16 16 16 16 15 15 15 16 16 16 16 16 17 17 18 18 19 20 21 22 21 20 19 18 17 17 16 16 16 15 15 13 13 12 11 10 9 10 11 12 13 13 13
16 16 15 15 15 15 16 16 16 16 16 16 17 17 18 19 20 20 21 22 21 20 18 17 17 17 16 16 16 15 14 13 12 11 10 9 9 10 12 13 14 14 14
16 16 15 15 15 15 16 16 16 16 16 16 17 17 18 19 20 21 21 21 21 19 18 17 17 17 17 16 16 15 13 12 11 10 9 9 9 11 12 14 14 14 14